44P/Reinmuth 2 (2008)

Japanese version
Home page
Updated on March 27, 2010

---------------------------------------------------------------------

* Profile

* Pictures

* Orbital Elements

The following orbital elements are taken from MPC 54167:

Epoch 2008 Feb. 24.0 TT = JDT 2454520.5
T 2008 Feb. 18.2768 TT                                  MPC
q   2.106390             (2000.0)            P               Q
n   0.1393600      Peri.   58.0689      +0.9601006      +0.2617010
a   3.684489       Node   286.6004      -0.2784828      +0.8624554
e   0.428309       Incl.    5.9047      -0.0255765      +0.4332242
P   7.07
From 443 observations 1980-2003, mean residual 0".7.  Nongravitational
     parameters A1 = -0.10, A2 = -0.0194.

* Finding Charts

* Magnitudes Graph

        m1 =  9.0 + 5 log d + 15.0 log r  [ ,0]  (             - 2008 Feb. 18)
        m1 = 10.6 + 5 log d + 10.0 log r  [0, ]  (2008 Feb. 18 -             )

---------------------------------------------------------------------

The orbital elements are published at the MPC Ephemerides and Orbital Elements.
The charts are made with StellaNavigator Ver.2.0 for Windows (AstroArts / ASCII).
The magnitudes graphs are made with Comet for Windows.

---------------------------------------------------------------------

Copyright(C) Seiichi Yoshida (comet@aerith.net). All rights reserved.